Tracking 18945 objects as of 19-Jan-2018
HD Live streaming from Space Station
objects crossing your sky now

FLOCK 3P 48

Track FLOCK 3P 48 now!
10-day predictions
FLOCK 3P 48 is classified as:


NORAD ID: 42006
Int'l Code: 2017-008BL
Perigee: 495.7 km
Apogee: 507.3 km
Inclination: 97.5 °
Period: 94.5 minutes
Semi major axis: 6872 km
RCS: Unknown
Launch date: February 15, 2017
Source: United States (US)
Launch site: SRIHARIKOTA (SRI)
aabbcc
Your satellite tracking list
Your tracking list is empty




NASA's NSSDC Master Catalog

Two Line Element Set (TLE):
1 42006U 17008BL  18018.81413507 +.00001051 +00000-0 +46633-4 0  9998
2 42006 097.4707 084.5387 0008449 166.7779 193.3681 15.23801290051144
Source of the keplerian elements: AFSPC